646  
ASUS44 KSHV 181110  
RWRSHV  
 
WEATHER ROUNDUP FOR THE FOUR STATE AREA  
NATIONAL WEATHER SERVICE SHREVEPORT LA  
500 AM CST FRI JAN 18 2019  
 
NOTE: "FAIR" INDICATES FEW OR NO CLOUDS BELOW 12000 FEET  
WITH NO SIGNIFICANT WEATHER AND/OR S TO VISIBILITY
.  
 
!LAZ001-LAZ014-TXZ097-181200  
SHREVEPORT...MONROE...TEXARKANA RADIOS  
 
CITY SKY/WX TMP DP RH WIND PRES REMARKS
 
SHREVEPORT FOG 43 43 100 CALM 30.07F VSB 1/2  
MONROE FOG 55 55 100 NE3 30.08F VSB 1/4  
NATCHITOCHES N/A 44 44 100 CALM 30.08F FOG  
TEXARKANA PTCLDY 41 41 100 NE3 30.07F FOG  

 
 
!LAZ001-LAZ014-TXZ097-181200  
OTHER LOCATIONS...  
 
CITY SKY/WX TMP DP RH WIND PRES REMARKS
 
DOWNTOWN SHV CLOUDY 44 43 96 CALM 30.08S  
BOSSIER CITY FOG 43 43 100 CALM 30.07S VSB 5/8  
RUSTON FOG 51 50 95 CALM 30.11F VSB 1/2  
LITTLE ROCK CLOUDY 47 44 90 E5 30.09F  
EL DORADO CLOUDY 50 50 100 NE5 30.08F  
JACKSON FOG 53 52 96 CALM 30.08F VSB 1/4  
NEW ORLEANS CLOUDY 62 60 93 SW6 30.11S  
HOUSTON CLOUDY 56 56 100 S3 30.06F FOG  
LUFKIN MOCLDY 43 43 100 CALM 30.08F  
TYLER PTCLDY 44 43 96 SE5 30.05F  
DAL FT WORTH CLOUDY 42 40 92 SE7 30.00F  

 
 
!TXZ136-TXZ165-181200  
TYLER...LUFKIN RADIOS  
 
CITY SKY/WX TMP DP RH WIND PRES REMARKS
 
TYLER PTCLDY 44 43 96 SE5 30.05F  
GILMER FOG 39 39 99 CALM 30.07F VSB 1/4  
LONGVIEW MOCLDY 42 42 100 S5 30.06F FOG  
LUFKIN MOCLDY 43 43 100 CALM 30.08F  

 
 
!TXZ136-TXZ165-181200  
OTHER LOCATIONS...  
 
CITY SKY/WX TMP DP RH WIND PRES REMARKS
 
NACOGDOCHES PTCLDY 41 41 100 CALM 30.08F  
BEAUMONT FOG 57 55 93 CALM 30.08F VSB 1/4  
HOUSTON CLOUDY 56 56 100 S3 30.06F FOG  
COLLEGE STN PTCLDY 50 49 96 S3 30.05F  
AUSTIN FOG 55 54 96 S6 30.03F VSB 1/4  
DAL FT WORTH CLOUDY 42 40 92 SE7 30.00F  
TEXARKANA PTCLDY 41 41 100 NE3 30.07F FOG  
SHREVEPORT FOG 43 43 100 CALM 30.07F VSB 1/2  
FORT POLK N/A 46 46 98 CALM 30.07F  
LAKE CHARLES FOG 55 55 100 SW5 30.09F VSB 1/4  

 
 
 
CLICK HERE TO GO TO PREVIOUS BULLETINS.

The Nexlab LA Page
The Nexlab TX Page
The Nexlab AR Page
The Nexlab OK Page Main Text Page